,,Stat6,,Stat2,,Stat8,,Stat9,,Stat10,,Wind1,,Wind1,
time,status,PA1M_AVG,status,PR1M_SUM,status,RH1M_AVG,status,SR1M_AVG,status,TA1M_AVG,status,W1dAve1m,status,W1sAve1m,
2007-07-28, 00:00:01,VALID,917.117,VALID,0,VALID,100,VALID,-0.0509425,VALID,18.9552,VALID,153,VALID,0.22093,
2007-07-28, 00:01:00,VALID,917.108,VALID,0,VALID,100,VALID,-0.0339617,VALID,18.903,VALID,153,VALID,0.040483,
2007-07-28, 00:02:01,VALID,917.106,VALID,0,VALID,100,VALID,-0.0849042,VALID,18.8711,VALID,153,VALID,0.379687,
2007-07-28, 00:03:01,VALID,917.101,VALID,0,VALID,100,VALID,-0.0339617,VALID,18.8651,VALID,157,VALID,0.748183,
2007-07-28, 00:04:01,VALID,917.089,VALID,0,VALID,100,VALID,-0.0339617,VALID,18.8646,VALID,153,VALID,0.453852,
2007-07-28, 00:05:01,VALID,917.082,VALID,0,VALID,100,VALID,-0.0509425,VALID,18.8581,VALID,153,VALID,0.508789,
2007-07-28, 00:06:01,VALID,917.079,VALID,0,VALID,100,VALID,-0.0339617,VALID,18.8451,VALID,153,VALID,0.549479,
2007-07-28, 00:07:01,VALID,917.069,VALID,0,VALID,100,VALID,-0.0169808,VALID,18.8287,VALID,153,VALID,0.331745,
2007-07-28, 00:08:01,VALID,917.062,VALID,0,VALID,100,VALID,0,VALID,18.8289,VALID,152,VALID,0.275868,
2007-07-28, 00:09:01,VALID,917.059,VALID,0,VALID,100,VALID,-0.0339617,VALID,18.7993,VALID,146,VALID,0.423828,
2007-07-28, 00:10:01,VALID,917.049,VALID,0,VALID,100,VALID,-0.0339617,VALID,18.7541,VALID,144,VALID,0.355945,
2007-07-28, 00:11:01,VALID,917.043,VALID,0,VALID,100,VALID,-0.0169808,VALID,18.7244,VALID,139,VALID,0.235795,
2007-07-28, 00:12:00,VALID,917.025,VALID,0,VALID,100,VALID,-0.0849042,VALID,18.7353,VALID,139,VALID,0.175595,
2007-07-28, 00:13:00,VALID,917.027,VALID,0,VALID,100,VALID,-0.0679233,VALID,18.7251,VALID,139,VALID,0,
2007-07-28, 00:14:00,VALID,917.022,VALID,0,VALID,100,VALID,-0.0679233,VALID,18.7061,VALID,139,VALID,0.159412,
2007-07-28, 00:15:00,VALID,917.02,VALID,0,VALID,100,VALID,0,VALID,18.6848,VALID,139,VALID,0,
2007-07-28, 00:16:00,VALID,917.035,VALID,0,VALID,100,VALID,0.0509425,VALID,18.6878,VALID,139,VALID,0,
2007-07-28, 00:17:00,VALID,917.043,VALID,0,VALID,100,VALID,0.0339617,VALID,18.7077,VALID,139,VALID,0.00118886,
2007-07-28, 00:18:00,VALID,917.043,VALID,0,VALID,100,VALID,0.0339617,VALID,18.7304,VALID,139,VALID,0,
2007-07-28, 00:19:00,VALID,917.024,VALID,0,VALID,100,VALID,0.0509425,VALID,18.7137,VALID,139,VALID,0.00133384,
2007-07-28, 00:20:00,VALID,917.025,VALID,0,VALID,100,VALID,0.0339617,VALID,18.6843,VALID,139,VALID,0.000726744,
2007-07-28, 00:21:00,VALID,917.016,VALID,0,VALID,100,VALID,0.0509425,VALID,18.6883,VALID,139,VALID,0.0755208,
2007-07-28, 00:22:00,VALID,917.007,VALID,0,VALID,100,VALID,0.0509425,VALID,18.6755,VALID,139,VALID,0,
2007-07-28, 00:23:00,VALID,916.997,VALID,0,VALID,100,VALID,0.0509425,VALID,18.6716,VALID,139,VALID,0,
2007-07-28, 00:24:00,VALID,917,VALID,0,VALID,100,VALID,0.0339617,VALID,18.6656,VALID,139,VALID,0,
2007-07-28, 00:25:00,VALID,916.988,VALID,0,VALID,100,VALID,0.0169808,VALID,18.6554,VALID,139,VALID,0.0208984,
2007-07-28, 00:26:00,VALID,916.983,VALID,0,VALID,100,VALID,0,VALID,18.682,VALID,138,VALID,0.23418,
2007-07-28, 00:27:00,VALID,916.986,VALID,0,VALID,100,VALID,0.0339617,VALID,18.6688,VALID,137,VALID,0.237282,
2007-07-28, 00:28:00,VALID,916.979,VALID,0,VALID,100,VALID,0.0169808,VALID,18.6301,VALID,104,VALID,0.49375,
2007-07-28, 00:29:00,VALID,916.985,VALID,0,VALID,100,VALID,0.0339617,VALID,18.6104,VALID,59,VALID,0.779154,
2007-07-28, 00:30:00,VALID,917,VALID,0,VALID,100,VALID,-0.101885,VALID,18.6438,VALID,54,VALID,0.470833,
2007-07-28, 00:31:00,VALID,916.988,VALID,0,VALID,100,VALID,-0.0339617,VALID,18.6598,VALID,54,VALID,0.307546,
2007-07-28, 00:32:00,VALID,916.971,VALID,0,VALID,100,VALID,-0.0679233,VALID,18.6278,VALID,54,VALID,0.37128,
2007-07-28, 00:33:00,VALID,916.974,VALID,0,VALID,100,VALID,-0.0849042,VALID,18.6179,VALID,54,VALID,0.290777,
2007-07-28, 00:34:00,VALID,916.967,VALID,0,VALID,100,VALID,-0.0849042,VALID,18.6111,VALID,54,VALID,0,
2007-07-28, 00:35:00,VALID,916.968,VALID,0,VALID,100,VALID,-0.0509425,VALID,18.6209,VALID,54,VALID,0.00109012,
2007-07-28, 00:36:00,VALID,916.956,VALID,0,VALID,100,VALID,-0.0679233,VALID,18.6211,VALID,54,VALID,0,
2007-07-28, 00:37:00,VALID,916.95,VALID,0,VALID,100,VALID,-0.0339617,VALID,18.6114,VALID,54,VALID,0.00111607,
2007-07-28, 00:38:00,VALID,916.943,VALID,0,VALID,100,VALID,-0.0339617,VALID,18.6079,VALID,54,VALID,0,
2007-07-28, 00:39:00,VALID,916.948,VALID,0,VALID,100,VALID,-0.0679233,VALID,18.5952,VALID,54,VALID,0,
2007-07-28, 00:40:00,VALID,916.958,VALID,0,VALID,100,VALID,-0.0339617,VALID,18.5949,VALID,54,VALID,0,
2007-07-28, 00:41:00,VALID,916.965,VALID,0,VALID,100,VALID,-0.0339617,VALID,18.6049,VALID,54,VALID,0.0417878,
2007-07-28, 00:42:00,VALID,916.967,VALID,0,VALID,100,VALID,-0.0169808,VALID,18.5917,VALID,55,VALID,0.277158,
2007-07-28, 00:43:00,VALID,916.961,VALID,0,VALID,100,VALID,-0.0169808,VALID,18.5917,VALID,62,VALID,0.442336,
2007-07-28, 00:44:00,VALID,916.959,VALID,0,VALID,100,VALID,0,VALID,18.5787,VALID,83,VALID,0.483803,
2007-07-28, 00:45:00,VALID,916.953,VALID,0,VALID,100,VALID,-0.0169808,VALID,18.5789,VALID,110,VALID,0.785792,
2007-07-28, 00:46:00,VALID,916.938,VALID,0,VALID,100,VALID,-0.0679233,VALID,18.5887,VALID,113,VALID,0.922256,
2007-07-28, 00:47:00,VALID,916.933,VALID,0,VALID,100,VALID,-0.0509425,VALID,18.6403,VALID,116,VALID,0.903472,
2007-07-28, 00:48:00,VALID,916.92,VALID,0,VALID,100,VALID,-0.0339617,VALID,18.663,VALID,116,VALID,0.718205,
2007-07-28, 00:49:00,VALID,916.922,VALID,0,VALID,100,VALID,-0.0509425,VALID,18.6473,VALID,116,VALID,0.544695,
2007-07-28, 00:50:00,VALID,916.921,VALID,0,VALID,100,VALID,-0.0509425,VALID,18.6049,VALID,116,VALID,0.288876,
2007-07-28, 00:51:00,VALID,916.916,VALID,0,VALID,100,VALID,0,VALID,18.5919,VALID,116,VALID,0,
2007-07-28, 00:52:00,VALID,916.898,VALID,0,VALID,100,VALID,-0.0509425,VALID,18.5787,VALID,116,VALID,0.10747,
2007-07-28, 00:53:00,VALID,916.898,VALID,0,VALID,100,VALID,-0.0169808,VALID,18.5528,VALID,116,VALID,0.0284722,
2007-07-28, 00:54:00,VALID,916.885,VALID,0,VALID,100,VALID,-0.0679233,VALID,18.5143,VALID,111,VALID,0.0912729,
2007-07-28, 00:55:00,VALID,916.869,VALID,0,VALID,100,VALID,-0.0339617,VALID,18.4816,VALID,74,VALID,0.422256,
2007-07-28, 00:56:00,VALID,916.877,VALID,0,VALID,100,VALID,-0.0509425,VALID,18.4719,VALID,64,VALID,0.189918,
2007-07-28, 00:57:00,VALID,916.861,VALID,0,VALID,100,VALID,-0.0509425,VALID,18.4752,VALID,64,VALID,0,
2007-07-28, 00:58:00,VALID,916.847,VALID,0,VALID,100,VALID,-0.0339617,VALID,18.4949,VALID,64,VALID,0,
2007-07-28, 00:59:00,VALID,916.846,VALID,0,VALID,100,VALID,-0.0509425,VALID,18.5206,VALID,64,VALID,0.0104802,
2007-07-28, 01:00:00,VALID,916.824,VALID,0,VALID,100,VALID,0.0509425,VALID,18.5289,VALID,64,VALID,0.00133384,
2007-07-28, 01:01:00,VALID,916.807,VALID,0,VALID,100,VALID,0.0169808,VALID,18.5648,VALID,64,VALID,0.101004,
2007-07-28, 01:02:00,VALID,916.792,VALID,0,VALID,100,VALID,0.0849042,VALID,18.5903,VALID,64,VALID,0.0410156,
2007-07-28, 01:03:00,VALID,916.787,VALID,0,VALID,100,VALID,0.101885,VALID,18.5838,VALID,64,VALID,0,
2007-07-28, 01:04:00,VALID,916.767,VALID,0,VALID,100,VALID,0.0849042,VALID,18.5743,VALID,64,VALID,0,
2007-07-28, 01:05:00,VALID,916.75,VALID,0,VALID,100,VALID,0.0849042,VALID,18.5416,VALID,64,VALID,0,
2007-07-28, 01:06:00,VALID,916.742,VALID,0,VALID,100,VALID,0.101885,VALID,18.496,VALID,64,VALID,0.0111607,
2007-07-28, 01:07:00,VALID,916.736,VALID,0,VALID,100,VALID,0.0339617,VALID,18.5319,VALID,64,VALID,0.0470655,
2007-07-28, 01:08:00,VALID,916.73,VALID,0,VALID,100,VALID,0.0679233,VALID,18.5548,VALID,52,VALID,0.256882,
2007-07-28, 01:09:00,VALID,916.725,VALID,0,VALID,100,VALID,0.0679233,VALID,18.5481,VALID,321,VALID,0.518293,
2007-07-28, 01:10:00,VALID,916.715,VALID,0,VALID,100,VALID,0.0849042,VALID,18.5743,VALID,295,VALID,0.526344,
2007-07-28, 01:11:00,VALID,916.703,VALID,0,VALID,100,VALID,0.0849042,VALID,18.6062,VALID,295,VALID,0.5359,
2007-07-28, 01:12:00,VALID,916.686,VALID,0,VALID,100,VALID,0.0679233,VALID,18.6454,VALID,323,VALID,0.678925,
2007-07-28, 01:13:00,VALID,916.673,VALID,0,VALID,100,VALID,0.0679233,VALID,18.6454,VALID,5,VALID,0.693026,
2007-07-28, 01:14:00,VALID,916.659,VALID,0,VALID,100,VALID,0.0849042,VALID,18.6391,VALID,339,VALID,0.567224,
2007-07-28, 01:15:00,VALID,916.647,VALID,0,VALID,100,VALID,-0.0509425,VALID,18.673,VALID,334,VALID,0.398615,
2007-07-28, 01:16:00,VALID,916.636,VALID,0,VALID,100,VALID,-0.0509425,VALID,18.6825,VALID,310,VALID,0.16654,
2007-07-28, 01:17:00,VALID,916.623,VALID,0,VALID,100,VALID,-0.0509425,VALID,18.686,VALID,310,VALID,0.136265,
2007-07-28, 01:18:00,VALID,916.61,VALID,0,VALID,100,VALID,-0.0509425,VALID,18.673,VALID,310,VALID,0.00319602,
2007-07-28, 01:19:00,VALID,916.611,VALID,0,VALID,100,VALID,-0.0509425,VALID,18.6466,VALID,310,VALID,0.0690407,
2007-07-28, 01:20:00,VALID,916.597,VALID,0,VALID,100,VALID,-0.0169808,VALID,18.6211,VALID,310,VALID,0,
2007-07-28, 01:21:00,VALID,916.597,VALID,0,VALID,100,VALID,-0.0169808,VALID,18.6014,VALID,310,VALID,0.00111607,
2007-07-28, 01:22:00,VALID,916.593,VALID,0,VALID,100,VALID,-0.0169808,VALID,18.5917,VALID,310,VALID,0,
2007-07-28, 01:23:00,VALID,916.595,VALID,0,VALID,100,VALID,-0.0509425,VALID,18.5625,VALID,310,VALID,0,
2007-07-28, 01:24:00,VALID,916.584,VALID,0,VALID,100,VALID,-0.0339617,VALID,18.559,VALID,310,VALID,0,
2007-07-28, 01:25:00,VALID,916.585,VALID,0,VALID,100,VALID,-0.0339617,VALID,18.5655,VALID,310,VALID,0,
2007-07-28, 01:26:00,VALID,916.594,VALID,0,VALID,100,VALID,0,VALID,18.5785,VALID,310,VALID,0.0234375,
2007-07-28, 01:27:00,VALID,916.593,VALID,0,VALID,100,VALID,-0.0169808,VALID,18.5757,VALID,332,VALID,0.296875,
2007-07-28, 01:28:00,VALID,916.596,VALID,0,VALID,100,VALID,-0.0339617,VALID,18.5428,VALID,356,VALID,0.193182,
2007-07-28, 01:29:00,VALID,916.579,VALID,0,VALID,100,VALID,0,VALID,18.5233,VALID,356,VALID,0,
2007-07-28, 01:30:00,VALID,916.57,VALID,0,VALID,100,VALID,0.0169808,VALID,18.5074,VALID,356,VALID,0.030692,
2007-07-28, 01:31:00,VALID,916.545,VALID,0,VALID,100,VALID,-0.0169808,VALID,18.4909,VALID,356,VALID,0.0145597,
2007-07-28, 01:32:00,VALID,916.513,VALID,0,VALID,100,VALID,-0.0169808,VALID,18.465,VALID,356,VALID,0.12035,
2007-07-28, 01:33:00,VALID,916.489,VALID,0,VALID,100,VALID,-0.0169808,VALID,18.433,VALID,356,VALID,0.015067,
2007-07-28, 01:34:00,VALID,916.472,VALID,0,VALID,100,VALID,-0.0509425,VALID,18.4267,VALID,356,VALID,0.27096,
2007-07-28, 01:35:00,VALID,916.453,VALID,0,VALID,100,VALID,-0.0169808,VALID,18.4295,VALID,356,VALID,0.142223,
2007-07-28, 01:36:00,VALID,916.447,VALID,0,VALID,100,VALID,0,VALID,18.4525,VALID,356,VALID,0,
2007-07-28, 01:37:00,VALID,916.454,VALID,0,VALID,100,VALID,-0.0169808,VALID,18.4555,VALID,356,VALID,0,
2007-07-28, 01:38:00,VALID,916.455,VALID,0,VALID,100,VALID,-0.0169808,VALID,18.4682,VALID,356,VALID,0,
2007-07-28, 01:39:00,VALID,916.461,VALID,0,VALID,100,VALID,-0.0169808,VALID,18.4874,VALID,356,VALID,0,
2007-07-28, 01:40:00,VALID,916.454,VALID,0,VALID,100,VALID,-0.0169808,VALID,18.5363,VALID,356,VALID,0,
2007-07-28, 01:41:00,VALID,916.454,VALID,0,VALID,100,VALID,0,VALID,18.5657,VALID,356,VALID,0.00305707,
2007-07-28, 01:42:00,VALID,916.437,VALID,0,VALID,100,VALID,-0.0169808,VALID,18.5884,VALID,358,VALID,0.449777,
2007-07-28, 01:43:00,VALID,916.44,VALID,0,VALID,100,VALID,0,VALID,18.6081,VALID,18,VALID,0.619665,
2007-07-28, 01:44:00,VALID,916.424,VALID,0,VALID,100,VALID,-0.0169808,VALID,18.6111,VALID,22,VALID,0.630145,
2007-07-28, 01:45:00,VALID,916.423,VALID,0,VALID,100,VALID,0,VALID,18.6304,VALID,26,VALID,0.347049,
2007-07-28, 01:46:00,VALID,916.407,VALID,0,VALID,100,VALID,-0.0169808,VALID,18.6563,VALID,26,VALID,0.0379192,
2007-07-28, 01:47:00,VALID,916.388,VALID,0,VALID,100,VALID,-0.0169808,VALID,18.6596,VALID,26,VALID,0.192116,
2007-07-28, 01:48:00,VALID,916.364,VALID,0,VALID,100,VALID,-0.0339617,VALID,18.6693,VALID,26,VALID,0.0186012,
2007-07-28, 01:49:00,VALID,916.352,VALID,0,VALID,100,VALID,-0.0169808,VALID,18.6823,VALID,26,VALID,0.343928,
2007-07-28, 01:50:00,VALID,916.33,VALID,0,VALID,100,VALID,-0.0679233,VALID,18.7119,VALID,26,VALID,0.33559,
2007-07-28, 01:51:00,VALID,916.337,VALID,0,VALID,100,VALID,-0.0509425,VALID,18.7478,VALID,26,VALID,0.394055,
2007-07-28, 01:52:00,VALID,916.349,VALID,0,VALID,100,VALID,-0.0339617,VALID,18.7668,VALID,25,VALID,0.365625,
2007-07-28, 01:53:00,VALID,916.352,VALID,0,VALID,100,VALID,-0.0679233,VALID,18.7798,VALID,25,VALID,0.224888,
2007-07-28, 01:54:00,VALID,916.352,VALID,0,VALID,100,VALID,-0.0509425,VALID,18.8155,VALID,25,VALID,0.00666921,
2007-07-28, 01:55:00,VALID,916.359,VALID,0,VALID,100,VALID,-0.0849042,VALID,18.8319,VALID,25,VALID,0,
2007-07-28, 01:56:00,VALID,916.364,VALID,0,VALID,100,VALID,-0.0679233,VALID,18.8349,VALID,25,VALID,0,
2007-07-28, 01:57:00,VALID,916.355,VALID,0,VALID,100,VALID,-0.0849042,VALID,18.8384,VALID,25,VALID,0,
2007-07-28, 01:58:00,VALID,916.354,VALID,0,VALID,100,VALID,-0.0509425,VALID,18.8287,VALID,25,VALID,0.025,
2007-07-28, 01:59:00,VALID,916.349,VALID,0,VALID,100,VALID,-0.0509425,VALID,18.8382,VALID,25,VALID,0.198264,
2007-07-28, 02:00:00,VALID,916.324,VALID,0,VALID,100,VALID,0.0339617,VALID,18.8437,VALID,25,VALID,0.209579,
2007-07-28, 02:01:00,VALID,916.322,VALID,0,VALID,100,VALID,0.0849042,VALID,18.843,VALID,25,VALID,0.422238,
2007-07-28, 02:02:00,VALID,916.306,VALID,0,VALID,100,VALID,0.0679233,VALID,18.8594,VALID,25,VALID,0.577934,
2007-07-28, 02:03:00,VALID,916.292,VALID,0,VALID,100,VALID,0.0509425,VALID,18.8694,VALID,25,VALID,0.491443,
2007-07-28, 02:04:00,VALID,916.273,VALID,0,VALID,100,VALID,0.0679233,VALID,18.8854,VALID,25,VALID,0.369531,
2007-07-28, 02:05:00,VALID,916.27,VALID,0,VALID,100,VALID,0.0339617,VALID,18.8886,VALID,25,VALID,0.26048,
2007-07-28, 02:06:00,VALID,916.271,VALID,0,VALID,100,VALID,0.0509425,VALID,18.8787,VALID,25,VALID,0.150856,
2007-07-28, 02:07:00,VALID,916.257,VALID,0,VALID,100,VALID,0.0849042,VALID,18.8984,VALID,25,VALID,0.195811,
2007-07-28, 02:08:00,VALID,916.257,VALID,0,VALID,100,VALID,0.0849042,VALID,18.9081,VALID,25,VALID,0.194949,
2007-07-28, 02:09:00,VALID,916.243,VALID,0,VALID,100,VALID,0.0679233,VALID,18.9211,VALID,25,VALID,0.00508721,
2007-07-28, 02:10:00,VALID,916.234,VALID,0,VALID,100,VALID,0.0679233,VALID,18.9373,VALID,25,VALID,0,
2007-07-28, 02:11:00,VALID,916.218,VALID,0,VALID,100,VALID,0.0509425,VALID,18.9565,VALID,25,VALID,0,
2007-07-28, 02:12:00,VALID,916.217,VALID,0,VALID,100,VALID,0.0509425,VALID,18.9697,VALID,25,VALID,0,
2007-07-28, 02:13:00,VALID,916.206,VALID,0,VALID,100,VALID,0.0509425,VALID,18.9795,VALID,25,VALID,0.0567336,
2007-07-28, 02:14:00,VALID,916.217,VALID,0,VALID,100,VALID,0.0339617,VALID,18.9827,VALID,25,VALID,0.0701265,
2007-07-28, 02:15:00,VALID,916.22,VALID,0,VALID,100,VALID,-0.0509425,VALID,19.0133,VALID,25,VALID,0.00490552,
2007-07-28, 02:16:00,VALID,916.212,VALID,0,VALID,100,VALID,-0.0169808,VALID,19.0458,VALID,25,VALID,0.166424,
2007-07-28, 02:17:00,VALID,916.211,VALID,0,VALID,100,VALID,-0.0339617,VALID,19.0652,VALID,25,VALID,0.128729,
2007-07-28, 02:18:00,VALID,916.206,VALID,0,VALID,100,VALID,-0.0679233,VALID,19.1014,VALID,25,VALID,0.17721,
2007-07-28, 02:19:00,VALID,916.205,VALID,0,VALID,100,VALID,-0.0339617,VALID,19.1106,VALID,25,VALID,0.00243056,
2007-07-28, 02:20:00,VALID,916.201,VALID,0,VALID,100,VALID,-0.101885,VALID,19.1463,VALID,25,VALID,0.0790777,
2007-07-28, 02:21:00,VALID,916.187,VALID,0,VALID,100,VALID,-0.0339617,VALID,19.1917,VALID,25,VALID,0.00230824,
2007-07-28, 02:22:00,VALID,916.17,VALID,0,VALID,100,VALID,0,VALID,19.2307,VALID,25,VALID,0.0658482,
2007-07-28, 02:23:00,VALID,916.157,VALID,0,VALID,100,VALID,0,VALID,19.2207,VALID,25,VALID,0.0239826,
2007-07-28, 02:24:00,VALID,916.137,VALID,0,VALID,100,VALID,0,VALID,19.2239,VALID,25,VALID,0.17866,
2007-07-28, 02:25:00,VALID,916.129,VALID,0,VALID,100,VALID,0,VALID,19.2142,VALID,25,VALID,0.180051,
2007-07-28, 02:26:00,VALID,916.106,VALID,0,VALID,100,VALID,-0.0169808,VALID,19.2174,VALID,25,VALID,0.197027,
2007-07-28, 02:27:00,VALID,916.089,VALID,0,VALID,100,VALID,-0.0679233,VALID,19.2371,VALID,25,VALID,0.30984,
2007-07-28, 02:28:00,VALID,916.09,VALID,0,VALID,100,VALID,-0.0509425,VALID,19.2339,VALID,26,VALID,0.540465,
2007-07-28, 02:29:00,VALID,916.075,VALID,0,VALID,100,VALID,-0.0169808,VALID,19.2501,VALID,14,VALID,0.333734,
2007-07-28, 02:30:00,VALID,916.065,VALID,0,VALID,100,VALID,0.0339617,VALID,19.2811,VALID,4,VALID,0.413672,
2007-07-28, 02:31:00,VALID,916.064,VALID,0,VALID,100,VALID,0.0679233,VALID,19.323,VALID,5,VALID,0.261979,
2007-07-28, 02:32:00,VALID,916.062,VALID,0,VALID,100,VALID,0.0169808,VALID,19.3495,VALID,10,VALID,0.483854,
2007-07-28, 02:33:00,VALID,916.063,VALID,0,VALID,100,VALID,0.0339617,VALID,19.3657,VALID,38,VALID,0.561435,
2007-07-28, 02:34:00,VALID,916.071,VALID,0,VALID,100,VALID,0.0169808,VALID,19.3916,VALID,38,VALID,0.356957,
2007-07-28, 02:35:00,VALID,916.064,VALID,0,VALID,100,VALID,0.0339617,VALID,19.4181,VALID,38,VALID,0.102865,
2007-07-28, 02:36:00,VALID,916.057,VALID,0,VALID,100,VALID,0.0849042,VALID,19.4236,VALID,38,VALID,0.174237,
2007-07-28, 02:37:00,VALID,916.047,VALID,0,VALID,100,VALID,0.0679233,VALID,19.4208,VALID,38,VALID,0.411966,
2007-07-28, 02:38:00,VALID,916.042,VALID,0,VALID,100,VALID,0.0509425,VALID,19.3984,VALID,39,VALID,0.550195,
2007-07-28, 02:39:00,VALID,916.033,VALID,0,VALID,100,VALID,0.0169808,VALID,19.4076,VALID,39,VALID,0.398247,
2007-07-28, 02:40:00,VALID,916.014,VALID,0,VALID,100,VALID,0.0169808,VALID,19.4049,VALID,39,VALID,0.543924,
2007-07-28, 02:41:00,VALID,916.015,VALID,0,VALID,100,VALID,0.0679233,VALID,19.3919,VALID,42,VALID,0.713663,
2007-07-28, 02:42:00,VALID,915.992,VALID,0,VALID,100,VALID,0.0169808,VALID,19.3919,VALID,32,VALID,0.889898,
2007-07-28, 02:43:00,VALID,915.989,VALID,0,VALID,100,VALID,0.0509425,VALID,19.3884,VALID,24,VALID,0.759549,
2007-07-28, 02:44:00,VALID,915.973,VALID,0,VALID,100,VALID,0.0339617,VALID,19.3849,VALID,21,VALID,0.310268,
2007-07-28, 02:45:00,VALID,915.974,VALID,0,VALID,100,VALID,0.0339617,VALID,19.4016,VALID,21,VALID,0.222747,
2007-07-28, 02:46:00,VALID,915.97,VALID,0,VALID,100,VALID,0.0169808,VALID,19.3851,VALID,22,VALID,0.556556,
2007-07-28, 02:47:00,VALID,915.958,VALID,0,VALID,100,VALID,0.0339617,VALID,19.4019,VALID,314,VALID,0.185724,
2007-07-28, 02:48:00,VALID,915.959,VALID,0,VALID,100,VALID,0.0339617,VALID,19.4206,VALID,314,VALID,0.200707,
2007-07-28, 02:49:00,VALID,915.958,VALID,0,VALID,100,VALID,0.0169808,VALID,19.4273,VALID,345,VALID,0.498828,
2007-07-28, 02:50:00,VALID,915.969,VALID,0,VALID,100,VALID,-0.0169808,VALID,19.4443,VALID,6,VALID,0.247332,
2007-07-28, 02:51:00,VALID,915.966,VALID,0,VALID,100,VALID,0.0169808,VALID,19.454,VALID,6,VALID,0.186257,
2007-07-28, 02:52:00,VALID,915.969,VALID,0,VALID,100,VALID,0.0509425,VALID,19.46,VALID,6,VALID,0.0147372,
2007-07-28, 02:53:00,VALID,915.969,VALID,0,VALID,100,VALID,0,VALID,19.4405,VALID,6,VALID,0.2371,
2007-07-28, 02:54:00,VALID,915.981,VALID,0,VALID,100,VALID,-0.0169808,VALID,19.4383,VALID,6,VALID,0.142401,
2007-07-28, 02:55:00,VALID,915.991,VALID,0,VALID,100,VALID,0,VALID,19.4056,VALID,8,VALID,0.43314,
2007-07-28, 02:56:00,VALID,915.995,VALID,0,VALID,100,VALID,-0.0169808,VALID,19.3894,VALID,9,VALID,0.297408,
2007-07-28, 02:57:00,VALID,915.992,VALID,0,VALID,100,VALID,0,VALID,19.3861,VALID,9,VALID,0.280061,
2007-07-28, 02:58:00,VALID,915.985,VALID,0,VALID,100,VALID,-0.0169808,VALID,19.3894,VALID,20,VALID,0.174352,
2007-07-28, 02:59:00,VALID,915.98,VALID,0,VALID,100,VALID,0,VALID,19.4026,VALID,22,VALID,0.0200076,
2007-07-28, 03:00:00,VALID,915.978,VALID,0,VALID,100,VALID,0.0169808,VALID,19.4151,VALID,22,VALID,0,
2007-07-28, 03:01:00,VALID,915.972,VALID,0,VALID,100,VALID,0,VALID,19.4156,VALID,22,VALID,0.0875,
2007-07-28, 03:02:00,VALID,915.961,VALID,0,VALID,100,VALID,0,VALID,19.4221,VALID,22,VALID,0,
2007-07-28, 03:03:00,VALID,915.957,VALID,0,VALID,100,VALID,-0.0169808,VALID,19.4148,VALID,22,VALID,0.000952744,
2007-07-28, 03:04:00,VALID,915.938,VALID,0,VALID,100,VALID,0.0169808,VALID,19.4146,VALID,16,VALID,0.2766,
2007-07-28, 03:05:00,VALID,915.922,VALID,0,VALID,100,VALID,0,VALID,19.441,VALID,350,VALID,0.22218,
2007-07-28, 03:06:00,VALID,915.917,VALID,0,VALID,100,VALID,0,VALID,19.4607,VALID,350,VALID,0.139323,
2007-07-28, 03:07:00,VALID,915.899,VALID,0,VALID,100,VALID,0,VALID,19.4665,VALID,9,VALID,0.433689,
2007-07-28, 03:08:00,VALID,915.887,VALID,0,VALID,100,VALID,0,VALID,19.4737,VALID,5,VALID,0.665968,
2007-07-28, 03:09:00,VALID,915.87,VALID,0,VALID,100,VALID,-0.0169808,VALID,19.454,VALID,356,VALID,0.571766,
2007-07-28, 03:10:00,VALID,915.846,VALID,0,VALID,100,VALID,-0.0169808,VALID,19.4283,VALID,10,VALID,0.583576,
2007-07-28, 03:11:00,VALID,915.829,VALID,0,VALID,100,VALID,0,VALID,19.4308,VALID,16,VALID,0.373326,
2007-07-28, 03:12:00,VALID,915.798,VALID,0,VALID,100,VALID,0,VALID,19.4415,VALID,355,VALID,0.605564,
2007-07-28, 03:13:00,VALID,915.791,VALID,0,VALID,100,VALID,0,VALID,19.4505,VALID,344,VALID,0.468936,
2007-07-28, 03:14:00,VALID,915.777,VALID,0,VALID,100,VALID,0.0169808,VALID,19.454,VALID,14,VALID,0.343568,
2007-07-28, 03:15:00,VALID,915.751,VALID,0,VALID,100,VALID,-0.101885,VALID,19.436,VALID,27,VALID,0.656622,
2007-07-28, 03:16:00,VALID,915.725,VALID,0,VALID,100,VALID,-0.0849042,VALID,19.4328,VALID,31,VALID,0.734766,
2007-07-28, 03:17:00,VALID,915.723,VALID,0,VALID,100,VALID,-0.101885,VALID,19.42,VALID,23,VALID,0.873402,
2007-07-28, 03:18:00,VALID,915.722,VALID,0,VALID,100,VALID,-0.101885,VALID,19.4066,VALID,28,VALID,0.699886,
2007-07-28, 03:19:00,VALID,915.712,VALID,0,VALID,100,VALID,-0.101885,VALID,19.4066,VALID,32,VALID,0.835756,
2007-07-28, 03:20:00,VALID,915.705,VALID,0,VALID,100,VALID,-0.118866,VALID,19.3971,VALID,32,VALID,0.589134,
2007-07-28, 03:21:00,VALID,915.696,VALID,0,VALID,100,VALID,-0.0679233,VALID,19.3836,VALID,33,VALID,0.213778,
2007-07-28, 03:22:00,VALID,915.695,VALID,0,VALID,100,VALID,-0.0849042,VALID,19.3577,VALID,33,VALID,0,
2007-07-28, 03:23:00,VALID,915.679,VALID,0,VALID,100,VALID,-0.101885,VALID,19.3257,VALID,33,VALID,0,
2007-07-28, 03:24:00,VALID,915.68,VALID,0,VALID,100,VALID,-0.101885,VALID,19.306,VALID,33,VALID,0,
2007-07-28, 03:25:00,VALID,915.662,VALID,0,VALID,100,VALID,-0.101885,VALID,19.2898,VALID,33,VALID,0,
2007-07-28, 03:26:00,VALID,915.639,VALID,0,VALID,100,VALID,-0.0679233,VALID,19.2666,VALID,33,VALID,0.329492,
2007-07-28, 03:27:00,VALID,915.615,VALID,0,VALID,100,VALID,-0.101885,VALID,19.2643,VALID,32,VALID,0.556641,
2007-07-28, 03:28:00,VALID,915.603,VALID,0,VALID,100,VALID,-0.101885,VALID,19.2606,VALID,28,VALID,0.630208,
2007-07-28, 03:29:00,VALID,915.604,VALID,0,VALID,100,VALID,-0.101885,VALID,19.2441,VALID,28,VALID,0.770139,
2007-07-28, 03:30:00,VALID,915.593,VALID,0,VALID,100,VALID,0,VALID,19.2397,VALID,16,VALID,0.766006,
2007-07-28, 03:31:00,VALID,915.606,VALID,0,VALID,100,VALID,0,VALID,19.2202,VALID,22,VALID,0.651456,
2007-07-28, 03:32:00,VALID,915.604,VALID,0,VALID,100,VALID,0.0169808,VALID,19.1943,VALID,12,VALID,0.500888,
2007-07-28, 03:33:00,VALID,915.615,VALID,0,VALID,100,VALID,0,VALID,19.1648,VALID,12,VALID,0.247461,
2007-07-28, 03:34:00,VALID,915.607,VALID,0,VALID,100,VALID,-0.0169808,VALID,19.1581,VALID,12,VALID,0.0354421,
2007-07-28, 03:35:00,VALID,915.619,VALID,0,VALID,100,VALID,0,VALID,19.1915,VALID,10,VALID,0.384961,
2007-07-28, 03:36:00,VALID,915.611,VALID,0,VALID,100,VALID,0.0169808,VALID,19.1651,VALID,348,VALID,0.507631,
2007-07-28, 03:37:00,VALID,915.615,VALID,0,VALID,100,VALID,0.0339617,VALID,19.1481,VALID,344,VALID,0.172763,
2007-07-28, 03:38:00,VALID,915.606,VALID,0,VALID,100,VALID,0.0339617,VALID,19.1908,VALID,344,VALID,0.077753,
2007-07-28, 03:39:00,VALID,915.594,VALID,0,VALID,100,VALID,0.0509425,VALID,19.2067,VALID,344,VALID,0.113653,
2007-07-28, 03:40:00,VALID,915.571,VALID,0,VALID,100,VALID,0.0169808,VALID,19.1973,VALID,344,VALID,0.0570652,
2007-07-28, 03:41:00,VALID,915.566,VALID,0,VALID,100,VALID,0.0169808,VALID,19.2105,VALID,343,VALID,0.391319,
2007-07-28, 03:42:00,VALID,915.573,VALID,0,VALID,100,VALID,0,VALID,19.194,VALID,341,VALID,0.396532,
2007-07-28, 03:43:00,VALID,915.548,VALID,0,VALID,100,VALID,0,VALID,19.1917,VALID,308,VALID,0.26456,